| time (UTC) | temp F | wind direction | speed knots | gust knots | rain 1hr in | rain 24hr in | rain mn in | humidity % | barometer mb |
| 20260506185730 | 67 | 135 | 0.0 | 1.7 | 0.00 | 0.00 | 0.00 | 53 | 1046.0 |
| 20260506185231 | 68 | 135 | 1.7 | 1.7 | 0.00 | 0.00 | 0.00 | 52 | 1109.7 |
| 20260506184730 | 68 | 90 | 0.0 | 1.7 | 0.00 | 0.00 | 0.00 | 51 | 1007.3 |
| 20260506184230 | 68 | 112 | 1.7 | 1.7 | 0.00 | 0.00 | 0.00 | 51 | 1090.9 |
| 20260506183730 | 69 | 22 | 0.0 | 0.9 | 0.00 | 0.00 | 0.00 | 50 | 1042.8 |
| 20260506183230 | 69 | 337 | 0.0 | 1.7 | 0.00 | 0.00 | 0.00 | 50 | 1094.1 |
| 20260506182729 | 69 | 315 | 0.0 | 1.7 | 0.00 | 0.00 | 0.00 | 50 | 968.5 |
| 20260506182230 | 70 | 337 | 1.7 | 1.7 | 0.00 | 0.00 | 0.00 | 49 | 1087.8 |
| 20260506181730 | 70 | 315 | 0.0 | 1.7 | 0.00 | 0.00 | 0.00 | 48 | 965.4 |
| 20260506181230 | 71 | 292 | 0.0 | 1.7 | 0.00 | 0.00 | 0.00 | 48 | 1095.2 |
| 20260506180730 | 71 | 270 | 0.0 | 2.6 | 0.00 | 0.00 | 0.00 | 48 | 1097.2 |
| 20260506180230 | 72 | 315 | 2.6 | 4.3 | 0.00 | 0.00 | 0.00 | 47 | 1002.2 |
| 20260506175730 | 72 | 315 | 2.6 | 4.3 | 0.00 | 0.00 | 0.00 | 47 | 1013.1 |
| 20260506175429 | 73 | 315 | 3.5 | 4.3 | 0.00 | 0.00 | 0.00 | 47 | 997.8 |
| 20260506175230 | 73 | 315 | 4.3 | 5.2 | 0.00 | 0.00 | 0.00 | 47 | 1052.6 |
| 20260506174730 | 73 | 315 | 5.2 | 7.0 | 0.00 | 0.00 | 0.00 | 47 | 1039.7 |
| 20260506174230 | 73 | 292 | 2.6 | 6.1 | 0.00 | 0.00 | 0.00 | 46 | 1097.2 |
| 20260506173730 | 73 | 337 | 4.3 | 6.1 | 0.00 | 0.00 | 0.00 | 46 | 1049.1 |
| 20260506173230 | 74 | 292 | 3.5 | 5.2 | 0.00 | 0.00 | 0.00 | 46 | 1078.2 |
| 20260506172730 | 74 | 315 | 5.2 | 6.1 | 0.00 | 0.00 | 0.00 | 46 | 1001.0 |
| 20260506172230 | 74 | 292 | 6.1 | 6.1 | 0.00 | 0.00 | 0.00 | 46 | 997.9 |
| 20260506172129 | 74 | 292 | 4.3 | 7.0 | 0.00 | 0.00 | 0.00 | 46 | 1100.3 |
| 20260506171730 | 74 | 247 | 2.6 | 7.0 | 0.00 | 0.00 | 0.00 | 46 | 1090.9 |
| 20260506171230 | 74 | 292 | 2.6 | 7.0 | 0.00 | 0.00 | 0.00 | 46 | 1019.7 |
| 20260506170730 | 74 | 292 | 4.3 | 7.0 | 0.00 | 0.00 | 0.00 | 46 | 1079.2 |
| 20260506170230 | 74 | 315 | 7.0 | 7.0 | 0.00 | 0.00 | 0.00 | 46 | 920.5 |
| 20260506165730 | 74 | 270 | 1.7 | 8.7 | 0.00 | 0.00 | 0.00 | 45 | 1013.5 |
| 20260506165230 | 75 | 315 | 8.7 | 8.7 | 0.00 | 0.00 | 0.00 | 45 | 929.9 |
| 20260506164829 | 75 | 315 | 6.1 | 10.4 | 0.00 | 0.00 | 0.00 | 44 | 1016.5 |
| 20260506164730 | 75 | 292 | 10.4 | 10.4 | 0.00 | 0.00 | 0.00 | 44 | 1049.1 |
| 20260506164230 | 76 | 292 | 6.1 | 9.6 | 0.00 | 0.00 | 0.00 | 44 | 1007.2 |
| 20260506163730 | 76 | 270 | 5.2 | 7.8 | 0.00 | 0.00 | 0.00 | 43 | 1005.5 |
| 20260506163230 | 77 | 315 | 7.8 | 7.8 | 0.00 | 0.00 | 0.00 | 42 | 1019.8 |
| 20260506162730 | 77 | 270 | 2.6 | 13.0 | 0.00 | 0.00 | 0.00 | 42 | 965.4 |
| 20260506162230 | 77 | 270 | 5.2 | 11.3 | 0.00 | 0.00 | 0.00 | 42 | 971.7 |
| 20260506161730 | 78 | 292 | 5.2 | 8.7 | 0.00 | 0.00 | 0.00 | 42 | 923.6 |
| 20260506161529 | 78 | 270 | 4.3 | 7.8 | 0.00 | 0.00 | 0.00 | 42 | 929.8 |
| 20260506161230 | 77 | 0 | 1.7 | 9.6 | 0.00 | 0.00 | 0.00 | 42 | 952.2 |
| 20260506160730 | 77 | 0 | 3.5 | 9.6 | 0.00 | 0.00 | 0.00 | 42 | 1013.5 |
| 20260506160230 | 77 | 292 | 2.6 | 12.2 | 0.00 | 0.00 | 0.00 | 41 | 998.5 |
| 20260506155730 | 78 | 292 | 7.8 | 10.4 | 0.00 | 0.00 | 0.00 | 41 | 1001.0 |
| 20260506155230 | 78 | 292 | 2.6 | 5.2 | 0.00 | 0.00 | 0.00 | 41 | 1052.2 |
| 20260506154730 | 78 | 270 | 3.5 | 8.7 | 0.00 | 0.00 | 0.00 | 41 | 924.8 |
| 20260506154237 | 77 | 270 | 6.1 | 12.2 | 0.00 | 0.00 | 0.00 | 1046.0 | |
| 20260506154229 | 77 | 270 | 6.1 | 12.2 | 0.00 | 0.00 | 0.00 | 42 | 1046.0 |
| 20260506153730 | 77 | 270 | 3.5 | 8.7 | 0.00 | 0.00 | 0.00 | 41 | 1039.6 |
| 20260506153230 | 77 | 270 | 2.6 | 8.7 | 0.00 | 0.00 | 0.00 | 41 | 1064.7 |
| 20260506152730 | 78 | 247 | 2.6 | 12.2 | 0.00 | 0.00 | 0.00 | 40 | 1049.1 |
| 20260506152230 | 79 | 247 | 6.1 | 11.3 | 0.00 | 0.00 | 0.00 | 39 | 1015.2 |
| 20260506151730 | 79 | 270 | 10.4 | 10.4 | 0.00 | 0.00 | 0.00 | 39 | 1046.0 |
| 20260506151230 | 79 | 270 | 5.2 | 12.2 | 0.00 | 0.00 | 0.00 | 38 | 1052.2 |
| 20260506150929 | 80 | 315 | 5.2 | 12.2 | 0.00 | 0.00 | 0.00 | 38 | 1042.8 |
| 20260506150730 | 80 | 270 | 6.1 | 11.3 | 0.00 | 0.00 | 0.00 | 37 | 1007.3 |
| 20260506150230 | 81 | 247 | 9.6 | 10.4 | 0.00 | 0.00 | 0.00 | 37 | 1030.3 |
| 20260506145730 | 82 | 270 | 7.0 | 7.0 | 0.00 | 0.00 | 0.00 | 36 | 1010.4 |
| 20260506145230 | 82 | 270 | 1.7 | 7.8 | 0.00 | 0.00 | 0.00 | 36 | 974.8 |
| 20260506144730 | 83 | 225 | 6.1 | 12.2 | 0.00 | 0.00 | 0.00 | 35 | 933.7 |
| 20260506144230 | 84 | 270 | 7.8 | 10.4 | 0.00 | 0.00 | 0.00 | 35 | 959.7 |
| 20260506143730 | 83 | 202 | 7.0 | 8.7 | 0.00 | 0.00 | 0.00 | 35 | 977.3 |
| 20260506143629 | 83 | 202 | 5.2 | 10.4 | 0.00 | 0.00 | 0.00 | 35 | 1036.6 |
| 20260506143230 | 83 | 270 | 6.1 | 11.3 | 0.00 | 0.00 | 0.00 | 35 | 1014.3 |
| 20260506142730 | 82 | 202 | 10.4 | 13.9 | 0.00 | 0.00 | 0.00 | 36 | 932.8 |
| 20260506142230 | 81 | 202 | 12.2 | 14.8 | 0.00 | 0.00 | 0.00 | 36 | 1094.1 |
| 20260506141730 | 82 | 202 | 7.8 | 16.5 | 0.00 | 0.00 | 0.00 | 35 | 1006.6 |
| 20260506141230 | 82 | 202 | 8.7 | 14.8 | 0.00 | 0.00 | 0.00 | 35 | 914.2 |
| 20260506140731 | 84 | 202 | 10.4 | 15.6 | 0.00 | 0.00 | 0.00 | 34 | 1023.3 |
| 20260506140329 | 84 | 270 | 13.0 | 16.5 | 0.00 | 0.00 | 0.00 | 34 | 962.3 |
| 20260506140230 | 84 | 270 | 9.6 | 16.5 | 0.00 | 0.00 | 0.00 | 34 | 1016.7 |
| 20260506135730 | 85 | 157 | 6.1 | 11.3 | 0.00 | 0.00 | 0.00 | 34 | 957.5 |
| 20260506135230 | 84 | 270 | 3.5 | 10.4 | 0.00 | 0.00 | 0.00 | 34 | 1055.4 |
| 20260506134730 | 84 | 202 | 10.4 | 14.8 | 0.00 | 0.00 | 0.00 | 35 | 913.3 |
| 20260506134230 | 83 | 270 | 5.2 | 12.2 | 0.00 | 0.00 | 0.00 | 35 | 1054.6 |
| 20260506133730 | 82 | 202 | 10.4 | 15.6 | 0.00 | 0.00 | 0.00 | 36 | 994.7 |
| 20260506133230 | 82 | 225 | 6.1 | 13.9 | 0.00 | 0.00 | 0.00 | 36 | 1041.8 |
| 20260506133029 | 82 | 270 | 10.4 | 13.0 | 0.00 | 0.00 | 0.00 | 36 | 1022.6 |
| 20260506132730 | 82 | 247 | 10.4 | 15.6 | 0.00 | 0.00 | 0.00 | 35 | 1013.1 |
| 20260506132230 | 82 | 225 | 7.8 | 15.6 | 0.00 | 0.00 | 0.00 | 35 | 1016.6 |
| 20260506131730 | 83 | 180 | 10.4 | 10.4 | 0.00 | 0.00 | 0.00 | 35 | 1059.3 |
| 20260506131230 | 82 | 247 | 3.5 | 14.8 | 0.00 | 0.00 | 0.00 | 35 | 962.0 |
| 20260506130730 | 82 | 270 | 5.2 | 12.2 | 0.00 | 0.00 | 0.00 | 35 | 1015.2 |
| 20260506130230 | 83 | 247 | 3.5 | 14.8 | 0.00 | 0.00 | 0.00 | 35 | 973.7 |
| 20260506125729 | 83 | 180 | 9.6 | 13.9 | 0.00 | 0.00 | 0.00 | 35 | 1042.8 |
| 20260506125230 | 82 | 225 | 1.7 | 16.5 | 0.00 | 0.00 | 0.00 | 35 | 1052.2 |
| 20260506124730 | 82 | 247 | 5.2 | 11.3 | 0.00 | 0.00 | 0.00 | 35 | 991.6 |
| 20260506124230 | 82 | 202 | 10.4 | 14.8 | 0.00 | 0.00 | 0.00 | 35 | 1044.4 |
| 20260506123730 | 82 | 247 | 6.1 | 10.4 | 0.00 | 0.00 | 0.00 | 35 | 1034.8 |
| 20260506123230 | 82 | 202 | 7.0 | 14.8 | 0.00 | 0.00 | 0.00 | 35 | 1016.4 |
| 20260506122730 | 82 | 247 | 7.0 | 9.6 | 0.00 | 0.00 | 0.00 | 35 | 959.6 |
| 20260506122429 | 82 | 202 | 7.8 | 13.9 | 0.00 | 0.00 | 0.00 | 35 | 1000.6 |
| 20260506122231 | 83 | 225 | 10.4 | 13.9 | 0.00 | 0.00 | 0.00 | 34 | 1039.7 |
| 20260506121730 | 83 | 202 | 4.3 | 13.0 | 0.00 | 0.00 | 0.00 | 34 | 1033.7 |
| 20260506121230 | 83 | 292 | 7.0 | 10.4 | 0.00 | 0.00 | 0.00 | 34 | 1028.3 |
| 20260506120730 | 83 | 202 | 7.8 | 12.2 | 0.00 | 0.00 | 0.00 | 34 | 1010.4 |
| 20260506120230 | 84 | 270 | 8.7 | 13.0 | 0.00 | 0.00 | 0.00 | 34 | 1049.1 |
| 20260506115730 | 84 | 247 | 5.2 | 16.5 | 0.00 | 0.00 | 0.00 | 33 | 1016.7 |
| 20260506115230 | 85 | 202 | 8.7 | 15.6 | 0.00 | 0.00 | 0.00 | 33 | 985.3 |
| 20260506115129 | 85 | 202 | 6.1 | 15.6 | 0.00 | 0.00 | 0.00 | 33 | 1075.2 |
| 20260506114730 | 85 | 202 | 1.7 | 13.0 | 0.00 | 0.00 | 0.00 | 33 | 971.1 |
| 20260506114230 | 84 | 225 | 3.5 | 14.8 | 0.00 | 0.00 | 0.00 | 34 | 1041.0 |
| 20260506113730 | 83 | 270 | 5.2 | 9.6 | 0.00 | 0.00 | 0.00 | 34 | 1042.8 |
| 20260506113230 | 83 | 225 | 6.1 | 15.6 | 0.00 | 0.00 | 0.00 | 33 | 1046.0 |
| 20260506112730 | 84 | 202 | 10.4 | 17.4 | 0.00 | 0.00 | 0.00 | 33 | 1004.1 |
| 20260506112230 | 84 | 157 | 8.7 | 13.0 | 0.00 | 0.00 | 0.00 | 33 | 1033.4 |
| 20260506111829 | 84 | 202 | 5.2 | 13.9 | 0.00 | 0.00 | 0.00 | 33 | 1069.5 |
| 20260506111730 | 84 | 135 | 2.6 | 13.9 | 0.00 | 0.00 | 0.00 | 33 | 969.8 |
| 20260506111230 | 84 | 157 | 6.1 | 15.6 | 0.00 | 0.00 | 0.00 | 33 | 1074.0 |
| 20260506110731 | 83 | 225 | 8.7 | 17.4 | 0.00 | 0.00 | 0.00 | 33 | 1042.8 |
| 20260506110230 | 84 | 225 | 8.7 | 13.9 | 0.00 | 0.00 | 0.00 | 33 | 967.6 |
| 20260506105730 | 84 | 202 | 5.2 | 15.6 | 0.00 | 0.00 | 0.00 | 32 | 1078.2 |
| 20260506105230 | 84 | 202 | 11.3 | 17.4 | 0.00 | 0.00 | 0.00 | 32 | 1042.8 |
| 20260506104730 | 85 | 202 | 11.3 | 13.0 | 0.00 | 0.00 | 0.00 | 32 | 965.4 |
| 20260506104529 | 85 | 247 | 7.0 | 13.0 | 0.00 | 0.00 | 0.00 | 32 | 976.7 |
| 20260506104230 | 85 | 270 | 7.0 | 8.7 | 0.00 | 0.00 | 0.00 | 31 | 1054.3 |
| 20260506103730 | 86 | 157 | 8.7 | 13.9 | 0.00 | 0.00 | 0.00 | 30 | 1039.7 |
| 20260506103230 | 86 | 180 | 2.6 | 11.3 | 0.00 | 0.00 | 0.00 | 30 | 1046.3 |
| 20260506102730 | 85 | 180 | 10.4 | 15.6 | 0.00 | 0.00 | 0.00 | 31 | 1047.7 |
| 20260506102230 | 85 | 247 | 5.2 | 12.2 | 0.00 | 0.00 | 0.00 | 31 | 921.5 |
| 20260506101730 | 84 | 135 | 7.0 | 9.6 | 0.00 | 0.00 | 0.00 | 31 | 1055.4 |
| 20260506101229 | 84 | 135 | 9.6 | 10.4 | 0.00 | 0.00 | 0.00 | 30 | 1051.4 |
| 20260506100730 | 84 | 225 | 6.1 | 13.9 | 0.00 | 0.00 | 0.00 | 30 | 972.3 |
| 20260506100230 | 84 | 157 | 3.5 | 11.3 | 0.00 | 0.00 | 0.00 | 30 | 1057.5 |
| 20260506095730 | 84 | 112 | 0.0 | 16.5 | 0.00 | 0.00 | 0.00 | 30 | 1042.8 |
| 20260506095230 | 84 | 225 | 7.8 | 10.4 | 0.00 | 0.00 | 0.00 | 30 | 1013.5 |
| 20260506094730 | 84 | 247 | 8.7 | 9.6 | 0.00 | 0.00 | 0.00 | 30 | 1083.7 |
| 20260506094230 | 84 | 202 | 8.7 | 10.4 | 0.00 | 0.00 | 0.00 | 30 | 1071.9 |
| 20260506093930 | 84 | 180 | 7.0 | 13.9 | 0.00 | 0.00 | 0.00 | 29 | 1039.7 |
| 20260506093730 | 84 | 202 | 9.6 | 13.9 | 0.00 | 0.00 | 0.00 | 29 | 1075.2 |
| 20260506093230 | 84 | 202 | 6.1 | 8.7 | 0.00 | 0.00 | 0.00 | 29 | 1010.0 |
| 20260506092730 | 85 | 225 | 3.5 | 7.0 | 0.00 | 0.00 | 0.00 | 29 | 968.7 |
| 20260506092230 | 85 | 157 | 1.7 | 7.0 | 0.00 | 0.00 | 0.00 | 29 | 991.6 |
| 20260506091731 | 86 | 180 | 1.7 | 10.4 | 0.00 | 0.00 | 0.00 | 28 | 1053.1 |
| 20260506091231 | 87 | 202 | 4.3 | 10.4 | 0.00 | 0.00 | 0.00 | 28 | 1004.5 |
| 20260506090731 | 88 | 225 | 5.2 | 10.4 | 0.00 | 0.00 | 0.00 | 28 | 1044.9 |
| 20260506090630 | 88 | 157 | 4.3 | 10.4 | 0.00 | 0.00 | 0.00 | 28 | 1046.1 |
| 20260506090231 | 88 | 135 | 0.0 | 7.0 | 0.00 | 0.00 | 0.00 | 28 | 1049.1 |
| 20260506085731 | 88 | 135 | 6.1 | 9.6 | 0.00 | 0.00 | 0.00 | 28 | 973.8 |
| 20260506085231 | 88 | 157 | 5.2 | 10.4 | 0.00 | 0.00 | 0.00 | 28 | 1034.5 |
| 20260506084731 | 88 | 225 | 5.2 | 7.8 | 0.00 | 0.00 | 0.00 | 29 | 1042.8 |
| 20260506084231 | 88 | 180 | 3.5 | 7.0 | 0.00 | 0.00 | 0.00 | 29 | 1046.0 |
| 20260506083731 | 88 | 270 | 3.5 | 7.0 | 0.00 | 0.00 | 0.00 | 28 | 1054.5 |
| 20260506083330 | 88 | 202 | 1.7 | 7.8 | 0.00 | 0.00 | 0.00 | 28 | 1035.2 |
| 20260506083231 | 88 | 157 | 7.8 | 7.8 | 0.00 | 0.00 | 0.00 | 28 | 1081.5 |
| 20260506082731 | 88 | 202 | 3.5 | 7.8 | 0.00 | 0.00 | 0.00 | 28 | 1043.1 |
| 20260506082231 | 89 | 202 | 5.2 | 7.8 | 0.00 | 0.00 | 0.00 | 27 | 1023.1 |
| 20260506081731 | 91 | 180 | 0.9 | 4.3 | 0.00 | 0.00 | 0.00 | 26 | 1090.9 |
| 20260506081231 | 93 | 157 | 1.7 | 8.7 | 0.00 | 0.00 | 0.00 | 26 | 1092.0 |
| 20260506080731 | 94 | 180 | 7.8 | 7.8 | 0.00 | 0.00 | 0.00 | 26 | 1048.5 |
| 20260506080231 | 94 | 247 | 1.7 | 5.2 | 0.00 | 0.00 | 0.00 | 26 | 1033.0 |
| 20260506073231 | 93 | 157 | 4.3 | 4.3 | 0.00 | 0.00 | 0.00 | 30 | 1084.7 |
| 20260506072730 | 92 | 157 | 1.7 | 6.1 | 0.00 | 0.00 | 0.00 | 29 | 991.6 |
| 20260506072231 | 93 | 202 | 0.9 | 1.7 | 0.00 | 0.00 | 0.00 | 30 | 1016.7 |
| 20260506071731 | 93 | 202 | 1.7 | 2.6 | 0.00 | 0.00 | 0.00 | 30 | 1103.3 |
| 20260506071237 | 92 | 157 | 0.0 | 3.5 | 0.90 | 0.00 | 0.00 | 31 | 1069.2 |
| 20260506071231 | 92 | 157 | 0.0 | 3.5 | 0.00 | 0.00 | 0.00 | 31 | 1069.2 |
| 20260506070731 | 89 | 225 | 1.7 | 3.5 | 0.00 | 0.00 | 0.00 | 33 | 1018.9 |
| 20260506070231 | 87 | 112 | 0.9 | 2.6 | 0.00 | 0.00 | 0.00 | 33 | 1017.5 |
| 20260506062238 | 84 | 135 | 1.7 | 3.5 | 0.00 | 0.00 | 0.00 | 39 | 1304.9 |
| 20260506062231 | 84 | 135 | 1.7 | 3.5 | 0.00 | 0.00 | 0.00 | 39 | 1049.8 |
| 20260506062130 | 84 | 135 | 2.6 | 2.6 | 0.00 | 0.00 | 0.00 | 39 | 1072.1 |
| 20260506061731 | 84 | 45 | 1.7 | 5.2 | 0.00 | 0.00 | 0.00 | 39 | 1094.0 |
| 20260506061231 | 84 | 112 | 3.5 | 5.2 | 0.00 | 0.00 | 0.00 | 40 | 1091.9 |
| 20260506060738 | 83 | 135 | 2.6 | 5.2 | 0.00 | 0.00 | 0.00 | 41 | 1056.4 |
| 20260506060731 | 83 | 135 | 2.6 | 5.2 | 0.00 | 0.00 | 0.00 | 41 | 1056.4 |
| 20260506060231 | 82 | 112 | 1.7 | 3.5 | 0.00 | 0.00 | 0.00 | 43 | 1078.4 |
| 20260506051231 | 68 | 22 | 2.6 | 6.1 | 0.00 | 0.00 | 0.00 | 58 | 1055.4 |
| 20260506050731 | 67 | 22 | 2.6 | 7.0 | 0.00 | 0.00 | 0.00 | 60 | 1081.5 |
| 20260506050231 | 66 | 45 | 2.6 | 6.1 | 0.00 | 0.00 | 0.00 | 63 | 1090.9 |
| 20260506044731 | 62 | 67 | 2.6 | 4.3 | 0.00 | 0.00 | 0.00 | 74 | 1039.7 |
| 20260506044230 | 58 | 22 | 4.3 | 6.1 | 0.00 | 0.00 | 0.00 | 77 | 988.4 |
| 20260506043731 | 55 | 22 | 2.6 | 7.0 | 0.00 | 0.00 | 0.00 | 75 | 1042.8 |
| 20260506043231 | 55 | 67 | 5.2 | 7.0 | 0.00 | 0.00 | 0.00 | 75 | 1075.2 |
| 20260506042731 | 55 | 67 | 7.0 | 7.0 | 0.00 | 0.00 | 0.00 | 74 | 1094.1 |
| 20260506042231 | 55 | 90 | 1.7 | 6.1 | 0.00 | 0.00 | 0.00 | 74 | 1045.9 |
| 20260506041731 | 55 | 67 | 6.1 | 6.1 | 0.00 | 0.00 | 0.00 | 73 | 1084.6 |
| 20260506041231 | 56 | 135 | 1.7 | 5.2 | 0.00 | 0.00 | 0.00 | 73 | 1046.0 |
| 20260506040930 | 56 | 112 | 2.6 | 7.8 | 0.00 | 0.00 | 0.00 | 72 | 1042.8 |
| 20260506040731 | 56 | 67 | 2.6 | 7.8 | 0.00 | 0.00 | 0.00 | 72 | 1058.5 |
| 20260506040231 | 57 | 112 | 3.5 | 7.0 | 0.00 | 0.00 | 0.00 | 73 | 1087.8 |
| 20260506035731 | 57 | 67 | 5.2 | 7.0 | 0.00 | 0.00 | 0.00 | 76 | 1036.5 |
| 20260506035231 | 56 | 45 | 1.7 | 5.2 | 0.00 | 0.00 | 0.00 | 78 | 1072.1 |
| 20260506034731 | 55 | 337 | 3.5 | 7.0 | 0.00 | 0.00 | 0.00 | 80 | 1082.4 |
| 20260506034231 | 54 | 45 | 1.7 | 4.3 | 0.00 | 0.00 | 0.00 | 80 | 1049.1 |
| 20260506033731 | 53 | 67 | 1.7 | 7.0 | 0.00 | 0.00 | 0.00 | 80 | 995.3 |
| 20260506033630 | 53 | 90 | 3.5 | 7.0 | 0.00 | 0.00 | 0.00 | 80 | 927.0 |
| 20260506033231 | 53 | 45 | 5.2 | 5.2 | 0.00 | 0.00 | 0.00 | 80 | 1030.3 |
| 20260506032731 | 53 | 67 | 2.6 | 6.1 | 0.00 | 0.00 | 0.00 | 80 | 1090.3 |
| 20260506032231 | 52 | 112 | 0.0 | 8.7 | 0.00 | 0.00 | 0.00 | 79 | 1043.1 |
| 20260506031731 | 52 | 67 | 8.7 | 8.7 | 0.00 | 0.00 | 0.00 | 79 | 1078.4 |
| 20260506031231 | 52 | 67 | 2.6 | 7.0 | 0.00 | 0.00 | 0.00 | 79 | 997.9 |
| 20260506030731 | 52 | 22 | 7.0 | 7.0 | 0.00 | 0.00 | 0.00 | 78 | 1055.4 |
| 20260506030330 | 52 | 45 | 3.5 | 6.1 | 0.00 | 0.00 | 0.00 | 78 | 1089.8 |
| 20260506030231 | 52 | 67 | 3.5 | 6.1 | 0.00 | 0.00 | 0.00 | 78 | 1084.6 |
| 20260506025731 | 52 | 45 | 2.6 | 6.1 | 0.00 | 0.00 | 0.00 | 77 | 1075.2 |
| 20260506025231 | 52 | 22 | 2.6 | 6.1 | 0.00 | 0.00 | 0.00 | 77 | 1087.8 |
| 20260506024731 | 52 | 45 | 2.6 | 5.2 | 0.00 | 0.00 | 0.00 | 77 | 1046.0 |
| 20260506024231 | 52 | 45 | 2.6 | 5.2 | 0.00 | 0.00 | 0.00 | 76 | 1084.7 |
| 20260506023731 | 52 | 45 | 1.7 | 6.1 | 0.00 | 0.00 | 0.00 | 76 | 1081.4 |
| 20260506023231 | 52 | 90 | 0.9 | 6.1 | 0.00 | 0.00 | 0.00 | 76 | 1055.2 |
| 20260506023030 | 52 | 22 | 3.5 | 5.2 | 0.00 | 0.00 | 0.00 | 76 | 1008.3 |
| 20260506022731 | 52 | 45 | 3.5 | 5.2 | 0.00 | 0.00 | 0.00 | 76 | 1055.4 |
| 20260506022231 | 52 | 45 | 0.9 | 4.3 | 0.00 | 0.00 | 0.00 | 76 | 988.4 |
| 20260506021731 | 52 | 90 | 3.5 | 5.2 | 0.00 | 0.00 | 0.00 | 75 | 1072.1 |
| 20260506021231 | 52 | 22 | 2.6 | 7.0 | 0.00 | 0.00 | 0.00 | 75 | 1078.4 |
| 20260506020731 | 52 | 22 | 3.5 | 6.1 | 0.00 | 0.00 | 0.00 | 75 | 1026.6 |
| 20260506020231 | 52 | 45 | 0.9 | 6.1 | 0.00 | 0.00 | 0.00 | 75 | 1065.8 |
| 20260506015730 | 52 | 22 | 0.0 | 3.5 | 0.00 | 0.00 | 0.00 | 75 | 1078.4 |
| 20260506015231 | 52 | 45 | 1.7 | 6.1 | 0.00 | 0.00 | 0.00 | 75 | 1081.5 |
| 20260506014732 | 52 | 45 | 1.7 | 6.1 | 0.00 | 0.00 | 0.00 | 75 | 1078.3 |
| 20260506014231 | 52 | 22 | 3.5 | 5.2 | 0.00 | 0.00 | 0.00 | 75 | 1036.6 |
| 20260506013732 | 52 | 45 | 1.7 | 5.2 | 0.00 | 0.00 | 0.00 | 75 | 1087.8 |
| 20260506013231 | 52 | 22 | 1.7 | 4.3 | 0.00 | 0.00 | 0.00 | 74 | 1027.1 |
| 20260506012731 | 53 | 45 | 1.7 | 5.2 | 0.00 | 0.00 | 0.00 | 74 | 1065.7 |
| 20260506012430 | 53 | 45 | 5.2 | 5.2 | 0.00 | 0.00 | 0.00 | 74 | 1010.4 |
| 20260506012231 | 53 | 90 | 1.7 | 4.3 | 0.00 | 0.00 | 0.00 | 74 | 1033.4 |
| 20260506011731 | 53 | 22 | 2.6 | 7.0 | 0.00 | 0.00 | 0.00 | 74 | 1075.2 |
| 20260506011231 | 53 | 45 | 4.3 | 7.8 | 0.00 | 0.00 | 0.00 | 74 | 994.7 |
| 20260506010731 | 53 | 45 | 4.3 | 8.7 | 0.00 | 0.00 | 0.00 | 74 | 1046.0 |
| 20260506010231 | 53 | 22 | 2.6 | 4.3 | 0.00 | 0.00 | 0.00 | 74 | 1075.2 |
| 20260506005731 | 53 | 270 | 2.6 | 10.4 | 0.00 | 0.00 | 0.00 | 75 | 1062.7 |
| 20260506005231 | 53 | 90 | 7.0 | 9.6 | 0.00 | 0.00 | 0.00 | 75 | 1039.7 |
| 20260506005130 | 53 | 67 | 5.2 | 5.2 | 0.00 | 0.00 | 0.00 | 75 | 1055.4 |
| 20260506004731 | 53 | 270 | 1.7 | 4.3 | 0.00 | 0.00 | 0.00 | 75 | 1042.8 |
| 20260506004239 | 53 | 22 | 1.7 | 9.6 | 0.00 | 0.00 | 0.00 | 75 | 1027.1 |
| 20260506004231 | 53 | 22 | 1.7 | 9.6 | 0.00 | 0.00 | 0.00 | 75 | 1027.1 |
| 20260506003731 | 54 | 22 | 4.3 | 7.0 | 0.00 | 0.00 | 0.00 | 75 | 1012.9 |
| 20260506003231 | 54 | 67 | 0.9 | 5.2 | 0.00 | 0.00 | 0.00 | 75 | 1060.3 |
| 20260506002731 | 54 | 0 | 1.7 | 5.2 | 0.00 | 0.00 | 0.00 | 75 | 1042.1 |
| 20260506002231 | 54 | 45 | 0.0 | 2.6 | 0.00 | 0.00 | 0.00 | 75 | 1053.4 |
| 20260506001831 | 54 | 45 | 0.9 | 5.2 | 0.00 | 0.00 | 0.00 | 75 | 1080.8 |
| 20260506001731 | 54 | 22 | 0.9 | 5.2 | 0.00 | 0.00 | 0.00 | 75 | 1060.9 |
| 20260506001231 | 54 | 45 | 2.6 | 5.2 | 0.00 | 0.00 | 0.00 | 75 | 1043.3 |
| 20260506000731 | 55 | 0 | 3.5 | 3.5 | 0.00 | 0.00 | 0.00 | 75 | 989.4 |
| 20260506000232 | 55 | 0 | 1.7 | 4.3 | 0.00 | 0.00 | 0.00 | 75 | 1049.0 |
| 20260505235732 | 55 | 22 | 1.7 | 4.3 | 0.00 | 0.00 | 0.00 | 75 | 1083.2 |
| 20260505235231 | 55 | 67 | 4.3 | 7.8 | 0.00 | 0.00 | 0.00 | 75 | 956.0 |
| 20260505234731 | 55 | 22 | 3.5 | 6.1 | 0.00 | 0.00 | 0.00 | 75 | 964.8 |
| 20260505234531 | 55 | 22 | 4.3 | 6.1 | 0.00 | 0.00 | 0.00 | 75 | 1032.0 |
| 20260505234232 | 55 | 90 | 1.7 | 7.0 | 0.00 | 0.00 | 0.00 | 75 | 1078.4 |
| 20260505233732 | 55 | 45 | 2.6 | 5.2 | 0.00 | 0.00 | 0.00 | 75 | 1050.2 |
| 20260505233232 | 56 | 22 | 1.7 | 7.8 | 0.00 | 0.00 | 0.00 | 75 | 1081.5 |
| 20260505232732 | 56 | 0 | 6.1 | 6.1 | 0.00 | 0.00 | 0.00 | 75 | 1078.4 |
| 20260505232232 | 56 | 0 | 1.7 | 7.0 | 0.00 | 0.00 | 0.00 | 75 | 1081.6 |
| 20260505231732 | 56 | 45 | 2.6 | 7.0 | 0.00 | 0.00 | 0.00 | 75 | 1007.7 |
| 20260505231231 | 57 | 0 | 6.1 | 6.1 | 0.00 | 0.00 | 0.00 | 75 | 1104.9 |
| 20260505230732 | 57 | 0 | 1.7 | 7.8 | 0.00 | 0.00 | 0.00 | 75 | 1087.8 |
| 20260505230232 | 57 | 0 | 7.8 | 7.8 | 0.00 | 0.00 | 0.00 | 75 | 1012.4 |
| 20260505225732 | 57 | 0 | 3.5 | 7.8 | 0.00 | 0.00 | 0.00 | 74 | 963.6 |
| 20260505225232 | 58 | 0 | 2.6 | 7.0 | 0.00 | 0.00 | 0.00 | 74 | 1081.5 |
| 20260505224732 | 58 | 22 | 2.6 | 4.3 | 0.00 | 0.00 | 0.00 | 74 | 946.6 |
| 20260505224232 | 58 | 45 | 0.0 | 8.7 | 0.00 | 0.00 | 0.00 | 74 | 1007.0 |
| 20260505223931 | 58 | 67 | 4.3 | 8.7 | 0.00 | 0.00 | 0.00 | 73 | 1090.9 |
| 20260505223732 | 58 | 67 | 2.6 | 4.3 | 0.00 | 0.00 | 0.00 | 73 | 922.9 |
| 20260505223232 | 58 | 0 | 1.7 | 5.2 | 0.00 | 0.00 | 0.00 | 73 | 1002.5 |
| 20260505222732 | 59 | 67 | 3.5 | 7.0 | 0.00 | 0.00 | 0.00 | 73 | 1051.9 |
| 20260505222232 | 59 | 45 | 0.0 | 8.7 | 0.00 | 0.00 | 0.00 | 73 | 1045.7 |
| 20260505221732 | 59 | 22 | 4.3 | 6.1 | 0.00 | 0.00 | 0.00 | 73 | 953.0 |
| 20260505221232 | 59 | 67 | 6.1 | 7.8 | 0.00 | 0.00 | 0.00 | 72 | 1055.4 |
| 20260505220732 | 60 | 22 | 1.7 | 4.3 | 0.00 | 0.00 | 0.00 | 71 | 989.1 |
| 20260505220631 | 60 | 0 | 1.7 | 6.1 | 0.00 | 0.00 | 0.00 | 71 | 937.9 |
| 20260505220232 | 60 | 67 | 1.7 | 6.1 | 0.00 | 0.00 | 0.00 | 71 | 885.3 |
| 20260505215732 | 60 | 337 | 3.5 | 5.2 | 0.00 | 0.00 | 0.00 | 71 | 1064.1 |
| 20260505215232 | 60 | 45 | 2.6 | 7.0 | 0.00 | 0.00 | 0.00 | 70 | 1103.5 |
| 20260505214732 | 60 | 22 | 2.6 | 9.6 | 0.00 | 0.00 | 0.00 | 70 | 1078.4 |
| 20260505214232 | 61 | 22 | 1.7 | 7.8 | 0.00 | 0.00 | 0.00 | 69 | 1010.4 |
| 20260505213732 | 61 | 45 | 2.6 | 8.7 | 0.00 | 0.00 | 0.00 | 69 | 1010.4 |
| 20260505213331 | 61 | 22 | 4.3 | 7.0 | 0.00 | 0.00 | 0.00 | 68 | 1097.2 |
| 20260505213232 | 61 | 22 | 2.6 | 8.7 | 0.00 | 0.00 | 0.00 | 68 | 1010.4 |
| 20260505212732 | 62 | 22 | 5.2 | 8.7 | 0.00 | 0.00 | 0.00 | 68 | 1004.1 |
| 20260505212232 | 62 | 22 | 1.7 | 7.0 | 0.00 | 0.00 | 0.00 | 67 | 1016.7 |
| 20260505211732 | 63 | 0 | 7.0 | 9.6 | 0.00 | 0.00 | 0.00 | 67 | 974.3 |
| 20260505211232 | 63 | 45 | 4.3 | 9.6 | 0.00 | 0.00 | 0.00 | 66 | 1023.5 |
| 20260505210732 | 64 | 22 | 9.6 | 11.3 | 0.00 | 0.00 | 0.00 | 66 | 1045.7 |
| 20260505210232 | 64 | 315 | 6.1 | 10.4 | 0.00 | 0.00 | 0.00 | 64 | 972.9 |
| 20260505210031 | 64 | 0 | 7.0 | 7.8 | 0.00 | 0.00 | 0.00 | 64 | 1002.7 |
| 20260505205732 | 64 | 67 | 7.0 | 9.6 | 0.00 | 0.00 | 0.00 | 63 | 1010.4 |
| 20260505205232 | 65 | 315 | 3.5 | 8.7 | 0.00 | 0.00 | 0.00 | 63 | 1045.9 |
| 20260505204732 | 65 | 45 | 0.0 | 12.2 | 0.00 | 0.00 | 0.00 | 63 | 965.7 |
| 20260505204232 | 65 | 0 | 5.2 | 10.4 | 0.00 | 0.00 | 0.00 | 62 | 1007.3 |
| 20260505203732 | 66 | 45 | 3.5 | 12.2 | 0.00 | 0.00 | 0.00 | 62 | 1046.0 |
| 20260505203232 | 66 | 22 | 6.1 | 12.2 | 0.00 | 0.00 | 0.00 | 61 | 1010.4 |
| 20260505202731 | 66 | 22 | 12.2 | 12.2 | 0.00 | 0.00 | 0.00 | 62 | 997.9 |
| 20260505202232 | 66 | 0 | 4.3 | 11.3 | 0.00 | 0.00 | 0.00 | 61 | 923.6 |
| 20260505201732 | 66 | 22 | 7.0 | 13.9 | 0.00 | 0.00 | 0.00 | 61 | 926.7 |
| 20260505201232 | 67 | 45 | 7.0 | 13.0 | 0.00 | 0.00 | 0.00 | 59 | 971.7 |
| 20260505200732 | 67 | 0 | 7.8 | 10.4 | 0.00 | 0.00 | 0.00 | 58 | 1046.0 |
| 20260505200232 | 67 | 22 | 4.3 | 10.4 | 0.00 | 0.00 | 0.00 | 57 | 930.2 |
| 20260505195732 | 68 | 22 | 9.6 | 13.0 | 0.00 | 0.00 | 0.00 | 55 | 1004.1 |
| 20260505195431 | 68 | 67 | 7.0 | 10.4 | 0.00 | 0.00 | 0.00 | 55 | 1013.5 |
| 20260505195232 | 68 | 45 | 7.0 | 10.4 | 0.00 | 0.00 | 0.00 | 54 | 965.4 |
| 20260505194732 | 68 | 0 | 7.0 | 11.3 | 0.00 | 0.00 | 0.00 | 52 | 997.9 |
| 20260505194232 | 68 | 22 | 7.0 | 8.7 | 0.00 | 0.00 | 0.00 | 50 | 1039.7 |
| 20260505193732 | 69 | 22 | 5.2 | 7.8 | 0.00 | 0.00 | 0.00 | 49 | 997.9 |
| 20260505193232 | 69 | 22 | 4.3 | 7.8 | 0.00 | 0.00 | 0.00 | 47 | 920.5 |
| 20260505192732 | 69 | 0 | 4.3 | 8.7 | 0.00 | 0.00 | 0.00 | 45 | 1090.9 |
| 20260505192232 | 69 | 0 | 5.2 | 7.0 | 0.00 | 0.00 | 0.00 | 42 | 1055.4 |
| 20260505192131 | 69 | 0 | 3.5 | 7.0 | 0.00 | 0.00 | 0.00 | 41 | 1055.4 |
| 20260505191732 | 69 | 22 | 1.7 | 7.8 | 0.00 | 0.00 | 0.00 | 40 | 1081.5 |
| 20260505191232 | 69 | 315 | 3.5 | 7.8 | 0.00 | 0.00 | 0.00 | 36 | 1004.1 |
| 20260505190732 | 70 | 135 | 0.0 | 3.5 | 0.00 | 0.00 | 0.00 | 34 | 920.5 |
| 20260505190232 | 70 | 225 | 0.0 | 1.7 | 0.00 | 0.00 | 0.00 | 34 | 1045.9 |